North Myrtle Beach, SC

12:42 PM EDT on October 23, 2019 (GMT -0400)
Grand Strand

Weather History for KCRE - September, 2019

Change the Weather History Date:

Friday, September 20, 2019

  Actual Average Record
Temperature  
Mean Temperature 71 °F 74 °F  
Max Temperature 80 °F 83 °F 91 °F (1945)
Min Temperature 61 °F 66 °F 53 °F (1962)
Degree Days  
Heating Degree Days 0 0  
Month to date heating degree days 0 0  
Since 1 July heating degree days 0 0  
Cooling Degree Days 6 9  
Month to date cooling degree days 282 229  
Year to date cooling degree days 2057 1705  
Growing Degree Days 20 (Base 50)    
Moisture  
Dew Point 60 °F    
Average Humidity 69    
Maximum Humidity 90    
Minimum Humidity 48    
Precipitation  
Precipitation 0.00 in 0.15 in 2.72 in (1943)
Month to date precipitation 10.90 4.43  
Year to date precipitation 42.57 39.78  
Sea Level Pressure  
Sea Level Pressure 30.26 in    
Wind  
Wind Speed 7 mph (NE)    
Max Wind Speed 15 mph    
Max Gust Speed 20 mph    
Visibility 10 miles    
Events      
T = Trace of Precipitation, MM = Missing Value Source: NWS Daily Summary

Daily Weather History Graph

Daily Weather History Graph

Search for Another Location

Airport or City:

Astronomy

Sep. 20, 2019 Rise Set
Actual Time 7:01 AM EDT 7:14 PM EDT
Civil Twilight 6:36 AM EDT 7:39 PM EDT
Nautical Twilight 6:07 AM EDT 8:08 PM EDT
Astronomical Twilight 5:37 AM EDT 8:38 PM EDT
Moon 11:19 PM EDT (9/20) 12:48 PM EDT (9/20)
Length of Visible Light 13h 03m
Length of Day
12h 13m
Waning Gibbous, 65% of the Moon is Illuminated
Sep 20
Waning Gibbous
Sep 21
Last Quarter
Sep 28
New
Oct 5
First Quarter
Oct 13
Full

Hourly Weather History & Observations

Time (EDT) Temp. Dew Point Humidity Pressure Visibility Wind Dir Wind Speed Gust Speed Precip Events Conditions
12:53 AM 66.0 °F 57.0 °F 73% 30.24 in 10.0 mi NE 9.2 mph - N/A   Mostly Cloudy
1:53 AM 64.9 °F 57.0 °F 75% 30.23 in 10.0 mi NE 9.2 mph - N/A   Clear
2:53 AM 64.0 °F 57.9 °F 80% 30.22 in 10.0 mi NE 10.4 mph - N/A   Clear
3:53 AM 64.0 °F 57.9 °F 80% 30.22 in 10.0 mi NE 9.2 mph - N/A   Clear
4:53 AM 63.0 °F 57.9 °F 84% 30.23 in 10.0 mi NNE 9.2 mph - N/A   Clear
5:53 AM 62.1 °F 57.9 °F 86% 30.24 in 10.0 mi NNE 9.2 mph - N/A   Clear
6:53 AM 61.0 °F 57.0 °F 87% 30.26 in 10.0 mi NNE 8.1 mph - N/A   Clear
7:53 AM 62.1 °F 57.9 °F 86% 30.28 in 10.0 mi NNE 9.2 mph - N/A   Clear
8:53 AM 66.0 °F 57.9 °F 75% 30.30 in 10.0 mi NNE 11.5 mph - N/A   Clear
9:53 AM 71.1 °F 57.0 °F 61% 30.31 in 10.0 mi NNE 12.7 mph - N/A   Clear
10:53 AM 75.0 °F 57.0 °F 53% 30.31 in 10.0 mi NE 12.7 mph - N/A   Clear
11:53 AM 77.0 °F 57.0 °F 50% 30.30 in 10.0 mi NE 10.4 mph - N/A   Clear
12:53 PM 79.0 °F 57.9 °F 48% 30.29 in 10.0 mi Variable 5.8 mph - N/A   Clear
1:53 PM 78.1 °F 60.1 °F 54% 30.28 in 10.0 mi ESE 8.1 mph 16.1 mph N/A   Clear
2:53 PM 78.1 °F 62.1 °F 58% 30.27 in 10.0 mi ESE 9.2 mph - N/A   Clear
3:53 PM 78.1 °F 62.1 °F 58% 30.25 in 10.0 mi ESE 8.1 mph - N/A   Clear
4:53 PM 78.1 °F 63.0 °F 60% 30.25 in 10.0 mi ESE 9.2 mph - N/A   Clear
5:53 PM 77.0 °F 62.1 °F 60% 30.25 in 10.0 mi Variable 4.6 mph - N/A   Clear
6:53 PM 75.9 °F 62.1 °F 62% 30.26 in 10.0 mi ESE 4.6 mph - N/A   Clear
7:53 PM 71.1 °F 63.0 °F 75% 30.26 in 10.0 mi Calm Calm - N/A   Clear
8:53 PM 68.0 °F 64.0 °F 87% 30.27 in 10.0 mi Calm Calm - N/A   Scattered Clouds
9:53 PM 68.0 °F 64.0 °F 87% 30.28 in 10.0 mi Calm Calm - N/A   Clear
10:53 PM 66.9 °F 63.0 °F 87% 30.28 in 10.0 mi Calm Calm - N/A   Clear
11:53 PM 66.9 °F 63.0 °F 87% 30.28 in 10.0 mi Calm Calm - N/A   Partly Cloudy